Meteo Giornale » Osservazioni meteo Italia » Bologna-Borgo Panigale

ore: 03:20 - Osservazioni Meteo Bologna-Borgo Panigale
Lat. 44° 32' N Lon. 11° 18' E Alt. 36 metri s.l.m.

sereno Europe/Rome

19 °C

Sereno

Temp. 24 Ore

17 °C

29 °C

Sud

13 Km/h

Dew point 13 °C

Umidità 68 %

Visibilità  10 Km

Il sole sorge alle ore 05:32

Il sole tramonta alle ore 20:51

Data e Ora Cielo e Fenomeni T °C DP °C Um. % Pres. hPa Vis. km Vento km/h
Oggi h: 03:20 sereno Sereno 19 13 68 1018 10 S 13
Oggi h: 02:50 sereno Sereno 19 13 68 1019 10 S 9.3
Oggi h: 02:20 sereno Sereno 19 13 68 1019 10 S 11.1
Oggi h: 01:50 sereno Sereno 19 13 68 1019 10 S 9.3
Oggi h: 01:20 sereno Sereno 18 12 67 1019 10 S 7.4
Oggi h: 00:50 sereno Sereno 19 13 68 1019 10 N 5.5
Oggi h: 00:20 sereno Sereno 19 12 63 1020 10 N 3.7
Ieri h: 23:50 sereno Sereno 19 13 68 1020 10 E 7.4
Ieri h: 23:20 sereno Sereno 19 12 63 1020 10 E 7.4
Ieri h: 22:50 sereno Sereno 20 12 59 1020 10 E/SE 9.3
Ieri h: 22:20 sereno Sereno 21 12 56 1020 10 E/SE 9.3
Ieri h: 21:50 sereno Sereno 22 12 53 1020 10 E/SE 13
Ieri h: 21:20 sereno Sereno 23 12 49 1019 10 E/SE 18.5
Ieri h: 20:50 sereno Sereno 24 12 47 1019 10 E/SE 18.5
Ieri h: 20:20 sereno Sereno 25 12 44 1019 10 E/SE 18.5
Ieri h: 19:50 sereno Sereno 26 12 41 1019 10 E/SE 20.3
Ieri h: 19:20 sereno Sereno 26 13 44 1019 10 E/SE 22.2
Ieri h: 18:50 sereno Sereno 28 13 39 1019 10 E 20.3
Ieri h: 18:20 sereno Sereno 28 13 39 1019 10 E 18.5
Ieri h: 17:50 sereno Sereno 29 13 37 1019 10 E 16.7
Ieri h: 17:20 sereno Sereno 29 12 35 1019 10 E 14.8
Ieri h: 16:50 sereno Sereno 29 12 35 1020 10 E 14.8
Ieri h: 16:20 sereno Sereno 29 13 37 1020 10 E 16.7
Ieri h: 15:50 sereno Sereno 29 13 37 1020 10 E 16.7
Ieri h: 15:20 sereno Sereno 29 12 35 1020 10 E 14.8
Ieri h: 14:50 sereno Sereno 29 12 35 1020 10 E 16.7
Ieri h: 14:20 sereno Sereno 29 13 37 1020 10 E 14.8
Ieri h: 13:50 sereno Sereno 29 11 32 1021 10 E 13
Ieri h: 13:20 sereno Sereno 29 12 35 1021 10 E 14.8
Ieri h: 12:50 sereno Sereno 28 12 37 1021 10 E 11.1
Ieri h: 12:20 sereno Sereno 28 12 37 1021 10 E/SE 14.8
Ieri h: 11:50 sereno Sereno 28 11 34 1021 10 E/SE 11.1
Ieri h: 11:20 sereno Sereno 28 13 39 1022 10 E 13
Ieri h: 10:50 sereno Sereno 26 13 44 1022 10 E 7.4
Ieri h: 10:20 sereno Sereno 26 13 44 1022 10 E 9.3
Ieri h: 09:50 sereno Sereno 25 13 47 1022 10 N 5.5
Ieri h: 09:20 sereno Sereno 24 11 43 1022 10 S 9.3
Ieri h: 08:50 sereno Sereno 22 11 49 1022 10 S/SO 13
Ieri h: 08:20 sereno Sereno 21 11 52 1021 10 S 14.8
Ieri h: 07:50 sereno Sereno 20 10 52 1021 10 S 16.7
Ieri h: 07:20 sereno Sereno 19 10 55 1021 10 S/SO 18.5
Ieri h: 06:50 sereno Sereno 19 9 52 1021 10 S/SO 18.5
Ieri h: 06:20 sereno Sereno 18 10 59 1021 10 S/SO 18.5
Ieri h: 05:50 sereno Sereno 17 10 63 1021 10 S/SO 16.7
Ieri h: 05:20 sereno Sereno 17 10 63 1021 10 S/SO 14.8
Ieri h: 04:20 sereno Sereno 17 10 63 1021 10 S/SO 11.1
Ieri h: 03:50 sereno Sereno 18 11 63 1021 10 S 16.7